sat.trackr.live / text

‹ back to catalog

STARLINK-34879

NORAD 65377 · 2025-190AC

PAYLOAD ACTIVE UNKNOWN

§ Identity

Operator
Country
US
Launch date
2025-08-28
Launch site
AFETR
Launch vehicle
Mass (kg)
RCS (m²)

Purposes: comms

External: N2YO · Heavens-Above · Gunter

§ Orbital elements

Epoch: 2026-05-25T01:48:50.321952Z

Period
94.10 min
Inclination
53.1593°
Eccentricity
0.0001120
Mean motion
15.30208849 rev/d
Perigee alt
474.4 km
Apogee alt
476.0 km
Semi-major
6,853.3 km
B*
5.0815e-4
RAAN
173.1214°
Arg perigee
77.3863°
Mean anomaly
282.7263°
Rev number
4,145

§ Raw data

STARLINK-348791 65377U 25190AC  26145.07558243  .00014725  00000+0  50815-3 0  99972 65377  53.1593 173.1214 0001120  77.3863 282.7263 15.30208849 41457

JSON: /api/v1/satellites/65377 · /tle

For live sub-satellite position, see the globe view (requires WebGL).

§ Visibility from observer

Set your observer location to see the next 7 days of passes ≥ 10°. The values pass through the URL so the page stays shareable.

No JS? Fill the form by hand. The geolocation button needs JavaScript.